Regional Weather Roundup
Issued by NWS

Home | Current Version | Previous Version | Text Only | Print | Product List | Glossary Off
Versions: 1 2 3 4 5 6 7 8 9 10 11 12 13 14 15 16 17 18 19 20 21 22 23 24 25 26 27

000
ASUS43 KDMX 231507
RWRIA

WEATHER ROUNDUP FOR IOWA
NATIONAL WEATHER SERVICE DES MOINES IA
1000 AM CDT WED APR 23 2014

NOTE: "FAIR" INDICATES FEW OR NO CLOUDS BELOW 12,000 FEET WITH NO
SIGNIFICANT WEATHER AND/OR OBSTRUCTIONS TO VISIBILITY.

* - THESE STATIONS ARE NOT NWS STATIONS...THUS NOT UNDER NWS
QUALITY CONTROL.  THEY ALSO DO NOT REPORT WEATHER SUCH
AS PRECIPITATION OR FOG.

IAZ001>003-012>014-020>022-031>034-043>046-231600-
   NORTHWEST IOWA

CITY           SKY/WX    TMP DP  RH WIND       PRES   REMARKS
CARROLL *      CLOUDY    50  34  53 SE18G26   29.96F
CHEROKEE *     LGT RAIN  46  36  66 SE20G26   29.89F
DENISON *      PTSUNNY   48  37  66 SE16G26   29.91S HAZE
LE MARS *      MOSUNNY   52  37  58 SE21G29   29.86F
ORANGE CITY *  CLOUDY    54  36  50 SE18G26   29.86F
SHELDON *      CLOUDY    48  36  61 SE24G31   29.86F
SIOUX CITY     CLOUDY    52  41  66 SE22G36   29.84F
SPENCER        CLOUDY    49  31  49 SE24G33   29.94F
STORM LAKE *   PTSUNNY   46  36  66 SE24G33   29.93F
$$

IAZ055>058-069>071-079>083-090>094-231600-
   SOUTHWEST IOWA

CITY           SKY/WX    TMP DP  RH WIND       PRES   REMARKS
ATLANTIC *     LGT RAIN  48  37  66 SE15G25   29.95F
AUDUBON *      RAIN      50  32  50 SE14G20   29.97F
CLARINDA *     DRIZZLE   50  41  71 SE10      29.98F
COUNCIL BLFS * CLOUDY    48  43  81 SE22G28   29.90F
CRESTON *      CLOUDY    50  32  50 S15       30.04R
HARLAN  *      CLOUDY    48  39  71 SE21G29   29.97R
LAMONI         CLOUDY    51  32  48 SE14G21   30.03S
RED OAK *      LGT RAIN  50  41  71 SE16G22   29.95F
SHENANDOAH *   CLOUDY    50  41  71 SE18G28   29.95F
$$

IAZ047>049-059>061-072>074-084-231600-
   CENTRAL IOWA

CITY           SKY/WX    TMP DP  RH WIND       PRES   REMARKS
AMES           CLOUDY    49  31  49 SE18G26   30.05S
ANKENY *       PTSUNNY   50  34  53 SE14G22   30.06R
CHARITON *     CLOUDY    48  36  61 SE14      30.06F
DES MOINES     CLOUDY    52  32  46 SE14G22   30.05S
GRINNELL*      CLOUDY    46  32  57 SE17G23   30.09F
KNOXVILLE *    CLOUDY    48  34  57 SE14G20   30.06R
MARSHALLTOWN   CLOUDY    47  34  60 SE21      30.07F
NEWTON *       PTSUNNY   48  32  53 SE22G29   30.08S
PELLA *        CLOUDY    48  34  57 SE14      30.09S
PERRY *        PTSUNNY   52  28  40 SE20G25   30.01S
$$

IAZ004>006-015-016-023>025-035-036-231600-
   NORTH CENTRAL IOWA

CITY           SKY/WX    TMP DP  RH WIND       PRES   REMARKS
ALGONA *       PTSUNNY   48  30  49 SE26      30.00F
CLARION *      MOSUNNY   48  32  53 SE22G33   30.04F
ESTHERVILLE    CLOUDY    46  32  58 SE24G35   29.95F
FORT DODGE *   CLOUDY    50  28  43 SE14G24   30.02F
MASON CITY     CLOUDY    45  33  63 SE23G29   30.08F
FOREST CITY *  CLOUDY    46  32  57 SE20G26   30.05S
IOWA FALLS *   CLOUDY    48  32  53 SE18G28   30.07F
$$

IAZ007>011-017>019-026>030-037>042-050>054-066-231600-
   NORTHEAST IOWA

CITY           SKY/WX    TMP DP  RH WIND       PRES   REMARKS
CEDAR RAPIDS   CLOUDY    45  31  58 SE15      30.14R
CHARLES CITY * CLOUDY    43  30  61 SE16G28   30.10F
CLINTON *      PTSUNNY   45  30  57 SE8       30.21R
DECORAH *      MOSUNNY   43  30  61 SE13      30.12F
DUBUQUE        CLOUDY    43  29  57 SE10      30.16S
MONTICELLO *   PTSUNNY   45  30  57 SE12G18   30.17R
OELWEIN *      PTSUNNY  N/A N/A N/A SE18      30.13F
WATERLOO       LGT RAIN  44  30  57 SE16      30.11F
$$

IAZ064-065-067-068-078-231600-
   EAST CENTRAL IOWA

CITY           SKY/WX    TMP DP  RH WIND       PRES   REMARKS
DAVENPORT      PTSUNNY   45  29  53 E14       30.18R
IOWA CITY      CLOUDY    45  32  60 SE9       30.18R
MT. PLEASANT * PTSUNNY   48  28  46 SE10      30.15S
MUSCATINE *    CLOUDY    48  30  49 SE9G16    30.17R
QUAD CITIES    MOSUNNY   47  30  51 SE13      30.18R
$$

IAZ062-063-075>077-085>089-095>099-231600-
   SOUTHEAST IOWA

CITY           SKY/WX    TMP DP  RH WIND       PRES   REMARKS
BURLINGTON     PTSUNNY   48  31  51 SE14      30.14F
FAIRFIELD *    PTSUNNY   48  32  53 SE15      30.13S
FORT MADISON * MOSUNNY   46  34  61 E10       30.14F
KEOKUK *       MOSUNNY   50  34  53 SE10      30.13F
OSKALOOSA *    PTSUNNY   48  32  53 SE18G26   30.10F
CENTERVILLE *  MOSUNNY   46  37  71 SE12      30.10R
OTTUMWA        CLOUDY    49  32  52 SE17      30.09F
WASHINGTON *   CLOUDY    48  30  49 SE16      30.15S
$$

ABBREVIATIONS USED IN REMARKS
   TC - TEMPERATURES IN CELSIUS
  WCI - WIND CHILL INDEX
   HX - HEAT INDEX
  VSB - VISIBILITY
$$




USA.gov is the U.S. government's official web portal to all federal, state and local government web resources and services.